QZS-3 (QZSS/PRN 199)

Last updated on Sun Jun 21 2026 00:03:34 GMT+0000 (Coordinated Universal Time)

1 42917U 17048A 26171.48424844 -.00000352 00000+0 00000+0 0 9997 2 42917 0.0575 161.6136 0001992 282.9218 125.4966 1.00274667 32291
UTC large
Height (km)
Speed (km/s)
/
Latitude / Longitude
Inclination (degrees)
Orbital Period (minutes)
Azimuth
Elevation
Range (km)
Doppler Factor

Next 0 passes for location: London (51.5072 / 0.1276)

No passes found over London.
QZS-3 (QZSS/PRN 199)